Meteo Giornale » Osservazioni meteo Croazia » Osijek

ore: 08:30 - Osservazioni Meteo Osijek
Lat. 45° 28' N Lon. 18° 49' E Alt. 89 metri s.l.m.

sereno Europe/Zagreb

20 °C

Sereno

Temp. 24 Ore

13 °C

27 °C

Ovest/Nord-Ovest

13 Km/h

Dew point 13 °C

Umidità 64 %

Visibilità  10 Km

Il sole sorge alle ore 05:11

Il sole tramonta alle ore 20:30

Data e Ora Cielo e Fenomeni T °C DP °C Um. % Pres. hPa Vis. km Vento km/h
Oggi h: 08:30 sereno Sereno 20 13 64 1013 10 O/NO 13
Oggi h: 08:00 sereno Sereno 18 14 77 1013 10 O 14.8
Oggi h: 07:30 sereno Sereno 17 14 82 1013 10 O 11.1
Oggi h: 07:00 sereno Sereno 16 14 87 1013 10 O 9.3
Oggi h: 06:30 sereno Sereno 15 13 87 1013 10 O 9.3
Oggi h: 06:00 sereno Sereno 14 13 93 1013 10 O 9.3
Oggi h: 05:30 sereno Sereno 13 12 93 1013 10 O/NO 7.4
Oggi h: 05:00 sereno Sereno 13 12 93 1013 10 N 5.5
Oggi h: 04:30 sereno Sereno 14 12 87 1013 10 O/NO 7.4
Oggi h: 04:00 sereno Sereno 14 12 87 1013 10 O 11.1
Oggi h: 03:30 sereno Sereno 14 13 93 1013 10 O/NO 9.3
Oggi h: 03:00 sereno Sereno 14 13 93 1013 10 N 5.5
Oggi h: 02:30 sereno Sereno 14 13 93 1013 10 O 9.3
Oggi h: 02:00 sereno Sereno 14 13 93 1013 10 O 9.3
Oggi h: 01:30 sereno Sereno 14 13 93 1013 10 O 11.1
Oggi h: 01:00 sereno Sereno 15 13 87 1013 10 O 11.1
Oggi h: 00:30 sereno Sereno 16 13 82 1013 10 O 9.3
Oggi h: 00:00 sereno Sereno 14 12 87 1013 10 O 9.3
Ieri h: 23:30 sereno Sereno 15 13 87 1013 10 SO 9.3
Ieri h: 23:00 sereno Sereno 16 13 82 1012 10 O 7.4
Ieri h: 22:30 sereno Sereno 16 13 82 1012 10 O 9.3
Ieri h: 22:00 sereno Sereno 17 14 82 1012 10 N 5.5
Ieri h: 21:30 sereno Sereno 17 14 82 1012 10 N 3.7
Ieri h: 21:00 sereno Sereno 20 13 64 1012 10 N 3.7
Ieri h: 20:30 sereno Sereno 21 13 60 1012 10 N 5.5
Ieri h: 20:00 sereno Sereno 24 12 47 1011 10 N/NE 7.4
Ieri h: 19:30 sereno Sereno 25 11 41 1011 10 N 7.4
Ieri h: 19:00 sereno Sereno 26 10 36 1011 10 N 5.5
Ieri h: 18:30 sereno Sereno 26 9 34 1011 10 N/NE 7.4
Ieri h: 18:00 sereno Sereno 27 9 32 1011 10 N 11.1
Ieri h: 17:30 sereno Sereno 27 8 30 1011 10 N 11.1
Ieri h: 17:00 sereno Sereno 27 7 28 1011 10 N 7.4
Ieri h: 16:30 sereno Sereno 27 9 32 1011 10 N/NE 9.3
Ieri h: 16:00 sereno Sereno 27 8 30 1012 10 N 9.3
Ieri h: 15:30 sereno Sereno 27 8 30 1012 10 N 7.4
Ieri h: 15:00 sereno Sereno 26 7 29 1012 10 N 9.3
Ieri h: 14:30 sereno Sereno 26 8 31 1012 10 E/NE 7.4
Ieri h: 14:00 sereno Sereno 25 9 36 1012 10 E/NE 7.4
Ieri h: 13:30 sereno Sereno 26 8 31 1012 10 N 5.5
Ieri h: 13:00 sereno Sereno 26 10 36 1013 10 N 7.4
Ieri h: 12:30 sereno Sereno 25 11 41 1013 10 N/NE 9.3
Ieri h: 12:00 sereno Sereno 25 11 41 1013 10 N 9.3
Ieri h: 11:30 sereno Sereno 25 11 41 1013 10 N 7.4
Ieri h: 11:00 sereno Sereno 24 11 43 1013 10 NO 11.1
Ieri h: 10:30 sereno Sereno 23 11 46 1013 10 NO 11.1
Ieri h: 10:00 sereno Sereno 21 13 60 1013 10 N/NO 9.3